TimeCST,TemperatureF,Dew PointF,Humidity,Sea Level PressureIn,VisibilityMPH,Wind Direction,Wind SpeedMPH,Gust SpeedMPH,PrecipitationIn,Events,Conditions,WindDirDegrees,DateUTC
12:53 AM,12.9,3.0,65,30.08,10.0,NNW,12.7,-,N/A,,Clear,330,2013-01-13 06:53:00
1:53 AM,10.9,1.9,67,30.08,10.0,NNW,10.4,-,N/A,,Clear,330,2013-01-13 07:53:00
2:53 AM,10.0,1.9,70,30.09,10.0,NW,11.5,-,N/A,,Clear,320,2013-01-13 08:53:00
3:53 AM,10.0,1.0,67,30.07,10.0,NW,9.2,-,N/A,,Clear,320,2013-01-13 09:53:00
4:46 AM,8.6,1.4,73,30.00,10.0,NW,10.4,-,N/A,,Mostly Cloudy,310,2013-01-13 10:46:00
4:53 AM,9.0,1.0,70,30.08,10.0,NW,10.4,-,N/A,,Mostly Cloudy,310,2013-01-13 10:53:00
5:53 AM,10.0,1.0,67,30.12,10.0,NW,9.2,-,N/A,,Overcast,320,2013-01-13 11:53:00
6:53 AM,9.0,1.0,70,30.14,10.0,NNW,8.1,-,N/A,,Overcast,330,2013-01-13 12:53:00
7:53 AM,10.0,1.0,67,30.17,10.0,West,8.1,-,N/A,,Overcast,260,2013-01-13 13:53:00
8:53 AM,10.0,1.0,67,30.17,10.0,WNW,8.1,-,N/A,,Overcast,290,2013-01-13 14:53:00
9:53 AM,10.0,1.0,67,30.18,9.0,West,9.2,-,N/A,,Overcast,260,2013-01-13 15:53:00
10:53 AM,10.9,1.9,67,30.14,10.0,WNW,6.9,-,N/A,,Overcast,300,2013-01-13 16:53:00
11:53 AM,12.0,1.9,64,30.14,10.0,NW,8.1,-,N/A,,Overcast,320,2013-01-13 17:53:00
12:43 PM,12.2,3.2,67,30.07,10.0,West,4.6,-,N/A,,Overcast,260,2013-01-13 18:43:00
12:53 PM,12.0,3.0,67,30.14,10.0,West,3.5,-,N/A,,Overcast,270,2013-01-13 18:53:00
1:08 PM,12.2,1.4,62,30.08,10.0,West,4.6,-,N/A,,Overcast,260,2013-01-13 19:08:00
1:45 PM,14.0,1.4,57,30.08,10.0,West,10.4,-,N/A,,Overcast,260,2013-01-13 19:45:00
1:53 PM,12.9,1.9,62,30.14,7.0,WNW,8.1,-,0.00,Snow,Light Snow,290,2013-01-13 19:53:00
2:53 PM,12.9,1.9,62,30.15,10.0,West,10.4,-,0.00,,Overcast,280,2013-01-13 20:53:00
3:53 PM,12.9,1.9,62,30.17,9.0,WNW,11.5,-,0.00,,Overcast,290,2013-01-13 21:53:00
4:18 PM,12.2,1.4,62,30.10,10.0,WNW,13.8,-,N/A,,Overcast,300,2013-01-13 22:18:00
4:41 PM,12.2,1.4,62,30.11,10.0,WNW,10.4,-,N/A,,Overcast,290,2013-01-13 22:41:00
4:53 PM,12.9,1.9,62,30.19,10.0,West,11.5,-,N/A,,Overcast,280,2013-01-13 22:53:00
5:45 PM,12.2,1.4,62,30.14,10.0,West,11.5,-,N/A,,Overcast,280,2013-01-13 23:45:00
5:53 PM,12.9,1.9,62,30.22,10.0,West,12.7,-,N/A,,Overcast,280,2013-01-13 23:53:00
6:53 PM,12.0,1.0,61,30.25,10.0,West,15.0,-,N/A,,Overcast,260,2013-01-14 00:53:00
7:53 PM,10.9,1.9,67,30.26,10.0,West,9.2,-,N/A,,Overcast,270,2013-01-14 01:53:00
8:53 PM,10.0,1.0,67,30.28,10.0,WNW,11.5,-,N/A,,Mostly Cloudy,290,2013-01-14 02:53:00
9:24 PM,10.4,1.4,67,30.22,10.0,WNW,6.9,-,N/A,,Scattered Clouds,300,2013-01-14 03:24:00
9:53 PM,9.0,1.9,73,30.30,10.0,WNW,6.9,-,N/A,,Partly Cloudy,290,2013-01-14 03:53:00
10:53 PM,9.0,1.9,73,30.32,10.0,West,8.1,-,N/A,,Clear,280,2013-01-14 04:53:00